User: anonymous   Login
Location: Columbia
(38.9520°N, 92.3340°W)
Time: 15:35:55
(UTC-06:00)
Language:

SL-08 RB Rocket - Orbit

View from above orbital plane
View from above orbital plane
View from above satellite
View from above satellite

Ground track
Ground track

The orbit data is extracted from the following two-line orbital elements,

1 26387U 00033D   15029.18876725  .00000652  00000-0  12271-3 0  7237
2 26387 098.0790 099.1912 0026379 215.4916 166.9027 14.67672384780236
Epoch (UTC): 29 January 2015 04:31:49
Eccentricity: 0.0026379
inclination: 98.0790°
perigee height: 650 km
apogee height: 687 km
right ascension of ascending node: 99.1912°
argument of perigee: 215.4916°
revolutions per day: 14.67672384
mean anomaly at epoch: 166.9027°
orbit number at epoch: 78023

The dashed part of the orbit path shows where the satellite is in the earth's shadow,  

DLR